Location: Ar Ranvel
(48.3000°N, 4.8833°W)
Time: 03:05:09
(UTC+00:00)

Cosmos 2322 Rocket - Pass Details

Date: 23 October 2021
Orbit: 832 x 851 km, 71.0° (Epoch: 01 December)

Event Time Altitude Azimuth Distance (km) Brightness Sun altitude
Rises 18:17:56 0° 182° (S) 3,363 5.4 -11.0°
Reaches altitude 10° 18:20:30 10° 174° (S) 2,433 4.6 -11.4°
Maximum altitude 18:25:38 39° 107° (ESE) 1,230 2.6 -12.3°
Drops below altitude 10° 18:30:48 10° 41° (NE) 2,454 4.2 -13.2°
Enters shadow 18:32:34 - 35° (NE) 3,091 4.8 -13.5°
